星链-36337(STARLINK-36337)

导读 | 豆包AI

STARLINK-36337(NORAD编号68716)是SpaceX星链(Starlink)星座中的一颗低轨互联网卫星,作为全球规模最大低轨卫星互联网星座的组成部分,运行于距离地面约550公里的近地轨道。 该卫星采用扁平化设计,适配SpaceX批量发射方案,依托星链组网为全球提供高速低延迟宽带互联网服务,可满足流媒体、视频通话、偏远地区联网等多场景需求,也支撑了星链手机直连等拓展服务的部署,延续了星链模块化、轻量小型化的设计特点,服务于全球覆盖的天基通信网络建设。

Basic Information
目录编号:
68716
目录名称:
STARLINK-36337
国际标识:
2026-081T
轨道中心:
EARTH
卫星名称:
星链-36337
卫星全名:
星链-36337(STARLINK-36337)
卫星状态:
在轨 (已飞行41 天)
发射日期:
2026-04-14 UTC
国别 :
美国 (US)
星等 :
--
Orbit Information
数据来源 国际轨道数据 AOE轨道数据
星历时间 2026-05-24T08:44:28+0800
1天前
查看轨道信息
2026-05-22T00:00:00+0800
3天前
查看轨道信息
半长轴 6796.777km 6796.921km
偏心率 0.0000748 0.0000671
轨道倾角 53.160° 53.158°
近地点辐角 88.610° 90.482°
升交点赤经 45.169° 56.475°
平近点角 271.499° 35.674°
近地点 418.131km 418.327km
远地点 419.149km 419.241km
周期 92.942分钟 92.945分钟
每日圈数 15.493454 15.492963
Detailed Information
固有亮度:
5
最大亮度:
2.5
卫星平台:
Starlink V1.0
覆盖范围:
全球
运营商:
太空探索技术公司
运营商所在国:
美国
制造商(研发单位):
太空探索技术公司
制造商所在国:
美国
使用方式:
暂无
Satellite Introduction
Starlink 计划是 SpaceX 推出的全球卫星互联网项目,通过发射低轨道卫星,为全球尤其是偏远地区提供高速、低延迟的互联网服务。自 2019 年起,Starlink 已部署数千颗卫星,旨在缩小全球数字鸿沟,推动互联网普及。该项目还为军事、航空等行业提供通信支持,带来广泛经济效益。
2D Orbit Map
3D Orbit Map
Orbit Altitude Analysis Chart
Orbit Inclination Analysis Chart
Orbit Comprehensive Analysis Chart
View Comprehensive Chart